STARLINK-31885, 59660

Orbit data source: Space-Track

STARLINK-31885, 59660 is a payload satellite owned by SpaceX/Seattle (US) in LEO that was launched on Mon, 06 May 2024 UTC via an FALCON 9 launch vehicle from the Air Force Eastern Test Range (AFETR). Payload-class satellites include a variety of spacecraft equipped with specific instruments for various scientific and technological missions. These include communications satellites like Starlink; space stations such as the ISS; scientific satellites like the Hubble; Earth observation satellites from companies like Planet Labs, Umbra, and HawkEye 360; GPS; miniature CubeSats for education and research; and military/defense satellites.

Loading next visibility...
Identifier
59660, 2024-084G
Orbit
LEO
Country
Flag of USUS
Related business
Manufacturer
SpaceX/Seattle
Mission
Operational spacecraft
Bus & Motor
STARLINK V2M, Unknown motor
Mass
730 kg wet, ~700 kg dry
Launch date (UTC)
2024-05-06 (1 year ago)
Launch vehicle
FALCON 9
Launch site
Air Force Eastern Test Range (AFETR)
Object type
Payload
Rocket body
Debris
Shape & HBR
Unknown
Radar Cross Section
Large (>1 m²)

Expand to show TLE details & history
Last TLE update: 1 day ago

TLE from 1 day ago
0 STARLINK-31885
1 59660U 24084G   25241.45980137  .00000600  00000-0  31340-4 0  9996
2 59660  43.0022  43.9861 0001369 265.8681  94.2014 15.27583553 75012
Epoch: 2025-08-29T11:02Z
TLE epoch observation values (Epoch: 2025-08-29T11:02:06.838Z)
Latitude
-0.00003°
Longitude
-99.45056°
Altitude
482.883 km
Speed
7.626 km/s
True Right ascension
02h 55m 56s
True Declination
0° 00' 00"
Sunlit
Object was in full shadow at epoch
Visualization orbit readout
Latitude
Unknown
Longitude
Unknown
Altitude
Unknown
Speed
Unknown
Apparent Right ascension
Unknown
Apparent Declination
Unknown
Sunlit
N/A
Visualization observer readout
Local Sidereal Time
05:17:23
Azimuth
Unknown
Elevation
Unknown
Doppler factor
Unknown
Orbital elements
Apogee altitude
485.923 km
Perigee altitude
484.044 km
Semi-major axis
6,863.12 km
Eccentricity
0.00014
Inclination
43.0022°
RAAN
43.9861°
Arg. of periapsis
265.8681°
True anomaly
94.21705°
Mean anomaly
94.2014°
Eccentric anomaly
94.20922°
Mean motion
3.81734 °/min
Orbital period
94.31 mins
BSTAR
0.00003134
Loading maneuver chart data...
Computing Atmospheric mass density...
Loading historical data...
Loading historical data...
Loading historical data...
Loading historical data...
Loading historical data...
Loading historical data...
Loading historical data...

Documentation

Showing up to 5 results
|